DateTimeUTC,F1_A11,F1_S11,BsB_S11,BsG_S11,BsR_S11,BbsB_S11,BbsG_S11,BbsR_S11,BaB_A11,BaG_A11,BaR_A11,T_S11,U_S11,P_S11,T1_A11
2020-02-07T00:00:00Z,00000380,21000600,,,,,,,,,,23.8,00.0,0598.1,30.9
2020-02-07T00:01:00Z,00000380,21000600,,,,,,,,,,23.8,00.0,0598.1,30.9
2020-02-07T00:02:00Z,00000380,21000600,,,,,,,,,,23.8,00.0,0598.1,30.9
2020-02-07T00:03:00Z,00000380,61000600,,,,,,,,,,23.8,00.0,0598.1,31.0
2020-02-07T00:04:00Z,00000380,41000600,0000.60,0000.38,0000.38,0000.98,0000.51,-000.17,0000.10,0000.29,0000.10,23.6,00.0,0598.9,31.0
2020-02-07T00:05:00Z,00000380,01000600,-000.13,0000.18,-000.27,-000.22,0000.44,-000.06,0000.09,0000.03,0000.02,23.6,00.0,0599.0,31.0
2020-02-07T00:06:00Z,00000380,01000600,0001.05,-000.18,0000.02,0000.20,0000.33,-000.08,-000.12,-000.03,-000.09,23.6,00.0,0599.0,31.0
2020-02-07T00:07:00Z,00000380,01000600,0000.53,0000.15,-000.16,0000.31,0000.27,-000.03,0000.10,0000.10,0000.12,23.6,00.0,0599.0,31.0
2020-02-07T00:08:00Z,00000380,01000600,0000.50,-000.22,-000.04,0000.64,0000.07,-000.06,-000.00,0000.05,-000.01,23.6,00.0,0599.0,31.0
2020-02-07T00:09:00Z,00000380,01000600,-000.02,0000.11,-000.02,0000.70,0000.38,0000.30,-000.04,-000.15,0000.00,23.6,00.0,0599.0,31.0
2020-02-07T00:10:00Z,00000380,01000600,0000.91,0000.39,-000.46,0000.49,0000.29,-000.15,-000.04,0000.08,-000.07,23.6,00.0,0599.0,31.0
2020-02-07T00:11:00Z,00000380,01000600,0000.37,-000.15,0000.15,0000.95,0000.15,-000.22,0000.02,-000.02,-000.00,23.6,00.0,0599.0,31.0
2020-02-07T00:12:00Z,00000380,01000600,0000.62,-000.14,-000.49,0000.80,0000.05,-000.64,0000.17,0000.28,0000.21,23.6,00.0,0599.0,31.0
2020-02-07T00:13:00Z,00000380,01000600,0000.08,-000.05,0000.30,0000.65,0000.40,0000.40,-000.13,-000.34,-000.10,23.6,00.0,0599.0,31.0
2020-02-07T00:14:00Z,00000380,01000600,0001.67,-000.13,-000.67,0000.19,-000.03,-000.53,-000.06,-000.02,-000.02,23.6,00.0,0599.1,31.0
2020-02-07T00:15:00Z,00000380,01000600,-000.17,-000.12,-000.33,0000.89,0000.55,0000.28,-000.12,-000.17,-000.14,23.6,00.0,0599.1,31.0
2020-02-07T00:16:00Z,00000380,01000600,-000.17,-000.14,-000.23,0000.16,-000.31,0000.10,0000.19,0000.22,0000.15,23.6,00.0,0599.1,31.0
2020-02-07T00:17:00Z,00000380,01000600,-000.14,-000.32,-000.10,-000.35,-000.16,0000.19,-000.07,0000.02,-000.06,23.6,00.0,0599.2,31.0
2020-02-07T00:18:00Z,00000380,01000600,-000.06,0000.58,-000.12,0000.43,0000.02,0000.14,-000.09,-000.27,-000.07,23.6,00.0,0599.2,31.0
2020-02-07T00:19:00Z,00000380,01000600,0000.04,-000.04,0000.01,-000.54,0000.13,-000.20,0000.07,0000.12,0000.08,23.6,00.0,0599.2,31.0
2020-02-07T00:20:00Z,00000380,01000600,0000.42,-000.06,0000.25,0000.55,0000.16,-000.08,-000.09,-000.08,-000.06,23.6,00.0,0599.2,31.0
2020-02-07T00:21:00Z,00000380,01000600,0000.20,0000.19,0000.26,0000.35,0000.07,-000.04,-000.00,0000.17,0000.02,23.6,00.0,0599.2,31.0
2020-02-07T00:22:00Z,00000380,01000600,0000.39,0000.06,-000.17,0000.21,0000.18,-000.06,-000.17,-000.06,-000.15,23.6,00.0,0599.2,31.0
2020-02-07T00:23:00Z,00000380,01000600,0000.15,-000.15,0000.18,0000.15,0000.03,-000.33,0000.10,-000.27,0000.05,23.6,00.0,0599.3,31.0
2020-02-07T00:24:00Z,00000380,01000600,-001.36,-000.15,-000.08,0000.36,0000.09,-000.29,-000.01,0000.17,0000.16,23.6,00.0,0599.3,31.0
2020-02-07T00:25:00Z,00000380,01000600,0000.36,-000.00,-000.14,0000.58,0000.01,0000.03,0000.04,0000.10,-000.15,23.6,00.0,0599.3,31.0
2020-02-07T00:26:00Z,00000380,01000600,0000.27,0000.17,-000.46,0000.43,-000.02,-000.24,-000.05,-000.00,0000.16,23.6,00.0,0599.3,31.0
2020-02-07T00:27:00Z,00000380,01000600,0000.60,0000.07,-000.06,0000.78,0000.00,-000.09,-000.16,-000.06,-000.14,23.6,00.0,0599.3,31.0
2020-02-07T00:28:00Z,00000380,01000600,-000.29,0000.54,0000.14,0000.73,0000.16,-000.10,0000.00,-000.11,-000.17,23.6,00.0,0599.4,31.0
2020-02-07T00:29:00Z,00000380,01000600,-000.78,-000.02,-000.13,0000.04,0000.12,-000.19,0000.13,0000.03,0000.22,23.6,00.0,0599.3,31.0
2020-02-07T00:30:00Z,00000380,01000600,0001.09,0000.14,-000.74,0000.56,-000.01,-000.12,-000.14,-000.15,-000.26,23.6,00.0,0599.3,31.0
2020-02-07T00:31:00Z,00000380,01000600,0001.75,-000.50,-000.12,0000.53,0000.30,-000.36,-000.13,0000.04,0000.17,23.6,00.0,0599.4,31.0
2020-02-07T00:32:00Z,00000380,01000600,0000.05,0000.08,0000.07,-000.23,0000.09,-000.08,0000.25,0000.16,-000.17,23.6,00.0,0599.4,31.0
2020-02-07T00:33:00Z,00000380,01000600,0000.21,-000.16,0000.47,0000.31,-000.02,0000.10,-000.17,-000.12,0000.15,23.6,00.0,0599.4,31.0
2020-02-07T00:34:00Z,00000380,01000600,-000.55,-000.37,-000.18,0000.41,0000.51,-000.13,0000.08,0000.01,-000.04,23.6,00.0,0599.4,31.0
2020-02-07T00:35:00Z,00000380,01000600,-000.53,0000.14,0000.07,0000.60,0000.41,0000.34,0000.04,0000.12,-000.00,23.6,00.0,0599.4,31.0
2020-02-07T00:36:00Z,00000380,01000600,0001.12,0000.58,-000.04,0000.57,0000.15,-000.18,0000.11,-000.13,0000.13,23.6,00.0,0599.4,31.0
2020-02-07T00:37:00Z,00000380,01000600,-000.20,-000.16,-000.15,0000.37,0000.18,0000.31,-000.10,0000.14,0000.08,23.6,00.0,0599.4,31.0
2020-02-07T00:38:00Z,00000380,01000600,0000.20,0000.29,-000.09,0000.79,0000.10,0000.37,-000.01,0000.04,-000.11,23.6,00.0,0599.4,31.0
2020-02-07T00:39:00Z,00000380,01000600,0000.09,0000.25,-000.11,0000.38,0000.03,-000.01,-000.10,-000.21,-000.12,23.6,00.0,0599.4,31.0
2020-02-07T00:40:00Z,00000380,01000600,0000.08,-000.13,0001.04,-000.22,-000.09,0000.22,0000.20,0000.15,0000.23,23.6,00.0,0599.4,31.0
2020-02-07T00:41:00Z,00000380,01000600,-000.95,0000.44,0000.02,-000.37,-000.12,-000.09,-000.06,0000.04,-000.08,23.6,00.0,0599.5,31.0
2020-02-07T00:42:00Z,00000380,01000600,0000.91,0000.18,0000.16,0000.51,-000.15,-000.01,-000.01,0000.00,0000.06,23.6,00.0,0599.5,31.0
2020-02-07T00:43:00Z,00000380,01000600,0000.47,0000.16,0000.45,0000.34,-000.10,0000.01,-000.03,-000.08,-000.09,23.6,00.0,0599.5,31.0
2020-02-07T00:44:00Z,00000380,01000600,0000.25,0000.35,-000.34,0000.05,-000.12,-000.33,-000.12,-000.34,-000.07,23.6,00.0,0599.5,31.0
2020-02-07T00:45:00Z,00000380,01000600,0001.10,-000.17,-000.08,0000.17,-000.14,-000.18,0000.05,0000.05,0000.04,23.6,00.0,0599.6,31.0
2020-02-07T00:46:00Z,00000380,01000600,-000.33,0000.00,-000.04,0000.85,0000.42,-000.00,0000.07,0000.09,0000.11,23.6,00.0,0599.6,31.0
2020-02-07T00:47:00Z,00000380,01000600,-000.11,-000.02,-000.19,-000.26,-000.20,-000.07,0000.07,0000.21,-000.07,23.6,00.0,0599.6,31.0
2020-02-07T00:48:00Z,00000380,01000600,0000.54,0000.38,-000.71,0000.68,-000.07,-000.26,-000.08,-000.07,-000.12,23.6,00.0,0599.7,31.0
2020-02-07T00:49:00Z,00000380,01000600,0000.06,0000.17,0000.31,0000.01,0000.27,0000.39,0000.09,0000.03,0000.14,23.7,00.0,0599.7,31.0
2020-02-07T00:50:00Z,00000380,01000600,-000.13,-000.08,-000.11,0000.23,0000.35,0000.02,-000.08,-000.01,-000.04,23.7,00.0,0599.7,31.0
2020-02-07T00:51:00Z,00000380,01000600,0000.83,-000.21,0000.49,0000.43,-000.18,-000.28,0000.08,0000.08,-000.00,23.7,00.0,0599.7,31.0
2020-02-07T00:52:00Z,00000380,01000600,0000.89,-000.01,0000.17,0000.37,0000.16,-000.14,-000.20,-000.12,-000.04,23.7,00.0,0599.8,31.0
2020-02-07T00:53:00Z,00000380,01000600,-000.33,-000.07,-000.12,0000.69,0000.35,0000.02,0000.01,-000.18,-000.11,23.7,00.0,0599.8,31.0
2020-02-07T00:54:00Z,00000380,01000600,0000.03,-000.08,-000.18,0000.07,0000.24,-000.30,-000.02,0000.09,-000.00,23.6,00.0,0599.8,31.0
2020-02-07T00:55:00Z,00000380,01000600,-000.39,-000.41,0000.05,-000.39,0000.02,0000.03,0000.04,0000.02,0000.20,23.7,00.0,0599.8,31.0
2020-02-07T00:56:00Z,00000380,01000600,0000.44,-000.02,0000.07,0000.30,0000.68,0000.24,-000.00,-000.02,-000.13,23.6,00.0,0599.8,31.0
2020-02-07T00:57:00Z,00000380,41000600,,,,,,,,,,23.7,00.0,0599.7,31.0
2020-02-07T00:58:00Z,00000380,61000600,,,,,,,,,,23.7,00.0,0599.0,31.0
2020-02-07T00:59:00Z,00000380,21000600,,,,,,,,,,23.8,00.0,0599.0,31.0
2020-02-07T01:00:00Z,00000380,21000600,,,,,,,,,,23.8,00.0,0599.0,31.0
2020-02-07T01:01:00Z,00000380,21000600,,,,,,,,,,23.8,00.0,0599.0,31.0
2020-02-07T01:02:00Z,00000380,21000600,,,,,,,,,,23.9,00.0,0599.0,31.0
2020-02-07T01:03:00Z,00000380,61000600,,,,,,,,,,23.9,00.0,0599.0,31.0
2020-02-07T01:04:00Z,00000380,41000600,0000.26,0000.25,0000.11,0000.54,0000.19,0000.11,0000.12,0000.27,0000.05,23.7,00.0,0600.0,31.0
2020-02-07T01:05:00Z,00000380,01000600,-000.79,0000.23,0000.25,0000.43,-000.08,-000.28,0000.06,-000.01,-000.12,23.7,00.0,0600.1,31.0
2020-02-07T01:06:00Z,00000380,01000600,-000.17,0000.04,0000.24,0000.71,0000.18,0000.04,-000.03,-000.03,0000.12,23.7,00.0,0600.1,31.0
2020-02-07T01:07:00Z,00000380,01000600,0000.51,0000.32,-000.12,0000.50,0000.25,-000.33,-000.10,-000.01,-000.03,23.6,00.0,0600.1,31.0
2020-02-07T01:08:00Z,00000380,01000600,-000.57,0000.22,0000.03,0001.05,0000.27,-000.12,0000.05,0000.07,-000.09,23.6,00.0,0600.1,31.0
2020-02-07T01:09:00Z,00000380,01000600,0000.72,0000.12,-000.09,0000.70,0000.29,-000.09,-000.02,0000.00,-000.02,23.6,00.0,0600.1,31.0
2020-02-07T01:10:00Z,00000380,01000600,0001.08,-000.09,-000.05,0000.28,-000.44,0000.27,-000.06,0000.12,0000.22,23.6,00.0,0600.1,31.0
2020-02-07T01:11:00Z,00000380,01000600,-000.16,-000.06,0000.54,0000.34,-000.06,0000.41,-000.15,-000.19,-000.16,23.6,00.0,0600.2,31.0
2020-02-07T01:12:00Z,00000380,01000600,-000.42,0000.07,-000.35,0000.95,0000.21,-000.18,0000.07,0000.09,0000.09,23.6,00.0,0600.2,31.0
2020-02-07T01:13:00Z,00000380,01000600,-000.05,0000.37,0000.02,-000.22,0000.01,0000.06,0000.04,-000.05,-000.08,23.6,00.0,0600.2,31.0
2020-02-07T01:14:00Z,00000380,01000600,-001.31,-000.43,-000.11,0000.25,0000.43,-000.30,-000.08,-000.29,-000.12,23.6,00.0,0600.2,31.0
2020-02-07T01:15:00Z,00000380,01000600,-000.18,-000.32,0000.21,-000.22,0000.07,0000.41,-000.02,-000.04,0000.02,23.6,00.0,0600.2,31.0
2020-02-07T01:16:00Z,00000380,01000600,0001.03,-000.22,-000.65,0000.91,-000.28,-000.14,0000.20,0000.22,0000.25,23.6,00.0,0600.2,31.0
2020-02-07T01:17:00Z,00000380,01000600,0000.06,0000.05,0000.29,0000.27,0000.33,0000.46,-000.04,0000.10,-000.15,23.6,00.0,0600.2,31.0
2020-02-07T01:18:00Z,00000380,01000600,0000.25,-000.25,0000.14,-000.33,0000.58,-000.15,-000.12,-000.18,-000.15,23.6,00.0,0600.3,31.0
2020-02-07T01:19:00Z,00000380,01000600,0000.50,0000.21,-000.10,-000.19,0000.67,-000.33,0000.23,0000.19,0000.22,23.6,00.0,0600.2,31.0
2020-02-07T01:20:00Z,00000380,01000600,0000.18,-000.17,0000.16,-000.37,0000.08,-000.28,0000.04,0000.04,0000.02,23.6,00.0,0600.3,31.0
2020-02-07T01:21:00Z,00000380,01000600,0000.36,0000.10,0000.12,0000.41,0000.59,0000.19,-000.06,0000.06,0000.08,23.6,00.0,0600.3,31.0
2020-02-07T01:22:00Z,00000380,01000600,0000.30,0000.30,0000.07,0000.78,-000.11,0000.05,0000.00,-000.15,-000.04,23.6,00.0,0600.3,31.0
2020-02-07T01:23:00Z,00000380,01000600,0000.52,-000.29,-000.02,0000.50,0000.39,-000.09,-000.16,0000.01,-000.07,23.6,00.0,0600.4,31.0
2020-02-07T01:24:00Z,00000380,01000600,0000.26,0000.11,-000.03,0001.17,0000.18,0000.20,0000.07,0000.23,-000.01,23.6,00.0,0600.4,31.0
2020-02-07T01:25:00Z,00000380,01000600,0000.26,-000.08,0000.13,0000.90,0000.46,0000.44,0000.03,-000.13,0000.09,23.6,00.0,0600.4,31.0
2020-02-07T01:26:00Z,00000380,01000600,-000.07,-000.10,0000.42,0001.12,0000.10,0000.05,0000.02,-000.01,-000.04,23.6,00.0,0600.4,31.0
2020-02-07T01:27:00Z,00000380,01000600,0000.71,0000.18,0000.14,0000.25,0000.16,0000.09,0000.20,0000.02,0000.10,23.6,00.0,0600.4,31.0
2020-02-07T01:28:00Z,00000380,01000600,0000.36,-000.13,-000.23,0000.58,0000.17,-000.43,-000.07,0000.00,-000.02,23.6,00.0,0600.4,31.0
2020-02-07T01:29:00Z,00000380,01000600,0000.10,0000.20,-000.10,0000.01,0000.50,-000.10,-000.08,0000.27,-000.06,23.6,00.0,0600.4,31.0
2020-02-07T01:30:00Z,00000380,01000600,0000.29,0000.09,-000.21,0000.42,0000.04,-000.08,0000.03,-000.18,0000.20,23.6,00.0,0600.4,31.0
2020-02-07T01:31:00Z,00000380,01000600,-000.12,0000.56,-000.03,0000.08,0000.12,0000.32,0000.07,0000.07,0000.05,23.6,00.0,0600.4,31.0
2020-02-07T01:32:00Z,00000380,01000600,0000.43,-000.16,0000.56,0000.50,0000.43,0000.04,0000.00,0000.04,-000.20,23.6,00.0,0600.4,31.0
2020-02-07T01:33:00Z,00000380,01000600,0000.88,-000.58,-000.61,-000.07,0000.07,-000.26,0000.10,-000.07,0000.08,23.6,00.0,0600.4,31.0
2020-02-07T01:34:00Z,00000380,01000600,0001.75,-000.01,0000.68,0000.87,-000.05,-000.12,0000.20,0000.22,0000.09,23.6,00.0,0600.3,31.0
2020-02-07T01:35:00Z,00000380,01000600,0000.67,0000.00,0000.20,0000.24,0000.04,0000.03,-000.21,0000.07,0000.17,23.6,00.0,0600.3,31.0
2020-02-07T01:36:00Z,00000380,01000600,0000.46,-000.22,-000.22,-000.12,0000.07,-000.11,0000.24,-000.00,-000.06,23.6,00.0,0600.3,31.0
2020-02-07T01:37:00Z,00000380,01000600,-000.40,-000.17,-000.05,0000.18,-000.10,-000.01,-000.00,-000.02,0000.03,23.6,00.0,0600.3,31.0
2020-02-07T01:38:00Z,00000380,01000600,0000.85,0000.08,-000.12,-000.36,-000.22,-000.34,0000.11,0000.09,-000.05,23.6,00.0,0600.3,31.0
2020-02-07T01:39:00Z,00000380,01000600,0000.72,-000.29,0000.07,-000.41,-000.17,0000.16,-000.04,0000.04,-000.08,23.6,00.0,0600.3,31.0
2020-02-07T01:40:00Z,00000380,01000600,-000.12,0000.38,0000.05,0000.45,0000.30,0000.18,0000.06,0000.02,0000.08,23.6,00.0,0600.3,31.0
2020-02-07T01:41:00Z,00000380,01000600,0000.36,0000.01,-000.02,-000.31,0000.18,-000.31,-000.00,0000.12,0000.03,23.6,00.0,0600.3,31.0
2020-02-07T01:42:00Z,00000380,01000600,0000.19,0000.24,0000.49,0000.54,0000.55,0000.21,0000.02,-000.13,0000.01,23.6,00.0,0600.3,31.0
2020-02-07T01:43:00Z,00000380,01000600,-000.56,-000.27,0000.56,-000.26,-000.19,-000.24,-000.10,0000.02,0000.08,23.6,00.0,0600.3,31.0
2020-02-07T01:44:00Z,00000380,01000600,-000.68,-000.16,0000.09,0000.52,0000.05,0000.02,0000.03,0000.06,0000.00,23.6,00.0,0600.3,31.0
2020-02-07T01:45:00Z,00000380,01000600,0000.33,0000.14,-000.41,-000.38,0000.48,0000.34,0000.14,-000.25,-000.08,23.5,00.0,0600.3,31.0
2020-02-07T01:46:00Z,00000380,01000600,0000.02,-000.18,-000.16,0000.06,0000.22,-000.38,-000.02,-000.02,0000.11,23.5,00.0,0600.4,30.9
2020-02-07T01:47:00Z,00000380,01000600,-000.36,-000.35,-000.13,0000.12,-000.05,-000.09,-000.05,0000.36,0000.03,23.5,00.0,0600.4,30.9
2020-02-07T01:48:00Z,00000380,01000600,0000.22,-000.07,0000.22,0000.36,0000.03,0000.06,0000.30,0000.15,0000.01,23.6,00.0,0600.4,30.9
2020-02-07T01:49:00Z,00000380,01000600,0000.08,-000.36,0000.18,0000.17,0000.03,0000.12,-000.16,-000.26,0000.04,23.6,00.0,0600.5,31.0
2020-02-07T01:50:00Z,00000380,01000600,0000.75,0000.83,0000.02,-000.13,0000.13,-000.15,0000.16,0000.18,-000.03,23.6,00.0,0600.4,31.0
2020-02-07T01:51:00Z,00000380,01000600,0000.54,-000.10,-000.17,0000.17,-000.22,0000.03,-000.12,-000.12,0000.05,23.6,00.0,0600.5,31.0
2020-02-07T01:52:00Z,00000380,01000600,-001.35,0000.39,-000.27,-000.40,0000.18,-000.27,0000.12,0000.05,-000.03,23.6,00.0,0600.5,31.0
2020-02-07T01:53:00Z,00000380,01000600,0000.42,0000.36,0000.46,-000.27,-000.12,0000.35,-000.11,0000.12,0000.04,23.6,00.0,0600.5,31.0
2020-02-07T01:54:00Z,00000380,01000600,0000.46,0000.10,-000.07,-000.30,-000.09,-000.11,-000.14,-000.04,0000.03,23.6,00.0,0600.5,31.0
2020-02-07T01:55:00Z,00000380,01000600,0000.25,0000.38,0000.25,-000.29,0000.37,0000.04,0000.07,-000.01,-000.01,23.6,00.0,0600.5,31.0
2020-02-07T01:56:00Z,00000380,01000600,0000.29,0000.20,0000.26,0000.72,0000.17,-000.01,0000.06,0000.11,0000.05,23.6,00.0,0600.5,31.0
2020-02-07T01:57:00Z,00000380,41000600,,,,,,,,,,23.6,00.0,0600.5,31.0
2020-02-07T01:58:00Z,00000380,61000600,,,,,,,,,,23.7,00.0,0599.8,31.0
2020-02-07T01:59:00Z,00000380,21000600,,,,,,,,,,23.8,00.0,0599.7,31.0
2020-02-07T02:00:00Z,00000380,21000600,,,,,,,,,,23.8,00.0,0599.7,31.0
2020-02-07T02:01:00Z,00000380,21000600,,,,,,,,,,23.8,00.0,0599.7,30.9
2020-02-07T02:02:00Z,00000380,21000600,,,,,,,,,,23.8,00.0,0599.7,30.9
2020-02-07T02:03:00Z,00000380,61000600,,,,,,,,,,23.8,00.0,0599.7,31.0
2020-02-07T02:04:00Z,00000380,41000600,-000.56,-000.51,-000.33,-000.46,-000.02,0000.10,-000.06,-000.03,-000.08,23.7,00.0,0600.6,30.9
2020-02-07T02:05:00Z,00000380,01000600,0000.49,0000.58,-000.17,0000.05,-000.58,0000.45,0000.00,0000.08,0000.04,23.6,00.0,0600.7,31.0
2020-02-07T02:06:00Z,00000380,01000600,-000.06,-000.46,0000.20,0000.77,-000.09,-000.02,0000.06,0000.01,0000.09,23.6,00.0,0600.7,31.0
2020-02-07T02:07:00Z,00000380,01000600,0000.11,0000.15,0000.14,0000.15,0000.13,0000.12,0000.11,0000.10,-000.01,23.6,00.0,0600.7,31.0
2020-02-07T02:08:00Z,00000380,01000600,0000.63,0000.02,0000.12,0001.23,0000.27,0000.35,-000.03,-000.08,-000.05,23.6,00.0,0600.6,31.0
2020-02-07T02:09:00Z,00000380,01000600,0001.38,-000.22,-000.24,0001.05,0000.02,-000.18,-000.09,-000.01,-000.05,23.6,00.0,0600.7,31.0
2020-02-07T02:10:00Z,00000380,01000600,0000.78,0000.12,-000.12,0000.08,0000.08,0000.16,0000.03,-000.02,0000.04,23.6,00.0,0600.7,31.0
2020-02-07T02:11:00Z,00000380,01000600,-000.13,-000.02,-000.04,0000.36,0000.14,-000.38,0000.04,-000.05,0000.09,23.6,00.0,0600.7,31.0
2020-02-07T02:12:00Z,00000380,01000600,0000.66,0000.12,-000.56,0000.15,0000.57,-000.30,-000.10,-000.02,-000.11,23.6,00.0,0600.7,31.0
2020-02-07T02:13:00Z,00000380,01000600,0000.22,0000.22,0000.16,0000.70,-000.01,-000.17,-000.09,-000.04,0000.01,23.6,00.0,0600.7,31.0
2020-02-07T02:14:00Z,00000380,01000600,0000.47,-000.09,-000.08,0000.04,0000.13,0000.10,0000.12,0000.08,0000.10,23.6,00.0,0600.7,31.0
2020-02-07T02:15:00Z,00000380,01000600,0000.39,0000.43,-000.08,0000.13,0000.05,-000.01,-000.02,-000.26,-000.02,23.5,00.0,0600.7,31.0
2020-02-07T02:16:00Z,00000380,01000600,0000.29,0000.38,0000.07,0000.58,0000.29,0000.21,0000.01,0000.24,0000.08,23.5,00.0,0600.8,30.9
2020-02-07T02:17:00Z,00000380,01000600,-000.15,-000.23,-000.19,0000.15,0000.26,0000.09,0000.09,0000.09,-000.04,23.6,00.0,0600.8,30.9
2020-02-07T02:18:00Z,00000380,01000600,0000.39,-000.07,-000.24,0000.20,0000.37,0000.06,-000.09,-000.12,-000.04,23.6,00.0,0600.8,31.0
2020-02-07T02:19:00Z,00000380,01000600,0001.13,0000.66,0000.12,-000.01,-000.17,0000.22,0000.19,0000.11,0000.21,23.6,00.0,0600.8,30.9
2020-02-07T02:20:00Z,00000380,01000600,0000.12,0000.10,0000.15,-000.31,0000.48,0000.22,-000.13,-000.05,-000.27,23.6,00.0,0600.8,31.0
2020-02-07T02:21:00Z,00000380,01000600,-001.35,-000.21,-000.03,0000.56,-000.21,0000.27,-000.10,0000.14,0000.16,23.6,00.0,0600.7,31.0
2020-02-07T02:22:00Z,00000380,01000600,0000.77,0000.25,0000.27,-000.07,0000.25,-000.32,0000.18,0000.05,0000.10,23.6,00.0,0600.7,31.0
2020-02-07T02:23:00Z,00000380,01000600,-001.02,0000.85,-000.22,-000.09,-000.26,0000.32,0000.04,-000.05,-000.09,23.6,00.0,0600.8,31.0
2020-02-07T02:24:00Z,00000380,01000600,0000.54,0000.18,0000.11,0000.46,0000.06,0000.11,-000.03,-000.09,0000.06,23.5,00.0,0600.8,31.0
2020-02-07T02:25:00Z,00000380,01000600,0000.47,0000.28,0000.16,0000.56,-000.05,0000.32,0000.11,-000.03,-000.03,23.5,00.0,0600.8,31.0
2020-02-07T02:26:00Z,00000380,01000600,-000.26,0000.31,0000.59,0000.22,0000.09,0000.16,-000.12,0000.08,0000.02,23.5,00.0,0600.8,31.0
2020-02-07T02:27:00Z,00000380,01000600,0000.94,-000.76,-000.26,0000.57,0000.30,0000.02,-000.13,0000.00,-000.12,23.6,00.0,0600.9,31.0
2020-02-07T02:28:00Z,00000380,01000600,0000.30,-000.13,0000.16,0000.28,-000.00,0000.16,-000.03,-000.13,0000.02,23.5,00.0,0600.9,31.0
2020-02-07T02:29:00Z,00000380,01000600,0000.01,0000.39,0000.07,-000.05,-000.12,0000.11,0000.04,-000.20,-000.02,23.5,00.0,0600.9,31.0
2020-02-07T02:30:00Z,00000380,01000600,0000.76,0000.29,-000.21,-000.52,0000.02,-000.29,0000.07,0000.15,0000.02,23.5,00.0,0600.9,31.0
2020-02-07T02:31:00Z,00000380,01000600,0000.43,0000.12,0000.57,-000.23,-000.10,0000.16,-000.01,0000.01,-000.08,23.5,00.0,0600.9,30.9
2020-02-07T02:32:00Z,00000380,01000600,-001.83,-000.16,-000.18,0000.49,0000.32,0000.09,0000.01,0000.09,0000.09,23.5,00.0,0601.0,30.9
2020-02-07T02:33:00Z,00000380,01000600,0001.36,-000.22,-000.18,0000.26,-000.13,-000.09,-000.03,-000.13,-000.11,23.5,00.0,0600.9,30.9
2020-02-07T02:34:00Z,00000380,01000600,0000.64,0000.28,0000.42,-000.26,-000.34,-000.22,0000.19,0000.27,0000.07,23.5,00.0,0600.9,30.9
2020-02-07T02:35:00Z,00000380,01000600,-000.01,-000.12,-000.16,0000.54,0000.02,0000.44,-000.17,-000.12,-000.06,23.5,00.0,0601.0,31.0
2020-02-07T02:36:00Z,00000380,01000600,0000.84,0000.38,0000.03,-000.03,-000.44,-000.03,-000.09,-000.04,0000.04,23.5,00.0,0600.9,31.0
2020-02-07T02:37:00Z,00000380,01000600,0000.15,0000.27,-000.04,0000.02,0000.38,0000.07,-000.02,0000.08,0000.08,23.5,00.0,0601.0,31.0
2020-02-07T02:38:00Z,00000380,01000600,0001.21,0000.40,-000.12,-000.08,0000.02,0000.13,0000.02,-000.20,0000.01,23.5,00.0,0601.0,31.0
2020-02-07T02:39:00Z,00000380,01000600,0000.23,-000.29,0000.00,0000.49,0000.05,0000.23,0000.10,0000.12,0000.01,23.5,00.0,0601.0,31.0
2020-02-07T02:40:00Z,00000380,01000600,-000.43,-000.37,-000.38,0000.08,-000.11,0000.05,0000.01,0000.21,0000.05,23.5,00.0,0601.0,31.0
2020-02-07T02:41:00Z,00000380,01000600,0001.18,0000.14,-000.11,0000.48,-000.08,-000.17,0000.05,0000.06,0000.03,23.5,00.0,0601.0,31.0
2020-02-07T02:42:00Z,00000380,01000600,0000.04,0000.12,0000.13,-000.31,0000.04,0000.05,-000.01,-000.26,-000.01,23.5,00.0,0601.1,31.0
2020-02-07T02:43:00Z,00000380,01000600,0000.06,-000.30,0000.18,0000.20,0000.00,0000.07,-000.21,-000.04,-000.28,23.5,00.0,0601.1,31.0
2020-02-07T02:44:00Z,00000380,01000600,-000.28,-000.28,-000.19,0000.59,-000.05,-000.01,-000.15,-000.15,-000.00,23.5,00.0,0601.1,31.0
2020-02-07T02:45:00Z,00000380,01000600,-000.42,0000.08,-000.28,0000.50,-000.22,-000.05,0000.20,0000.04,0000.18,23.5,00.0,0601.1,31.0
2020-02-07T02:46:00Z,00000380,01000600,0001.06,0000.06,-000.11,0000.75,-000.18,-000.38,-000.01,0000.07,-000.06,23.5,00.0,0601.2,30.9
2020-02-07T02:47:00Z,00000380,01000600,0001.28,-000.03,0000.23,0000.51,-000.18,0000.59,-000.08,0000.07,-000.01,23.5,00.0,0601.2,30.9
2020-02-07T02:48:00Z,00000380,01000600,0000.13,0000.05,0000.01,0000.48,-000.20,-000.08,-000.12,-000.24,-000.14,23.5,00.0,0601.2,31.0
2020-02-07T02:49:00Z,00000380,01000600,-000.41,0000.20,0000.12,0000.52,-000.31,0000.23,0000.08,0000.12,0000.29,23.5,00.0,0601.3,31.0
2020-02-07T02:50:00Z,00000380,01000600,0000.72,0000.49,0000.31,0000.41,0000.23,-000.00,0000.11,0000.14,-000.06,23.5,00.0,0601.2,31.0
2020-02-07T02:51:00Z,00000380,01000600,0000.54,0000.08,0000.29,-000.53,-000.60,0000.28,-000.09,-000.10,-000.01,23.5,00.0,0601.4,31.0
2020-02-07T02:52:00Z,00000380,01000600,-000.06,-000.13,0000.24,0000.57,-000.17,-000.05,0000.08,0000.11,0000.04,23.5,00.0,0601.3,31.0
2020-02-07T02:53:00Z,00000380,01000600,0001.76,-000.32,-000.03,-000.27,-000.28,0000.20,0000.05,0000.06,-000.00,23.5,00.0,0601.3,31.0
2020-02-07T02:54:00Z,00000380,01000600,0000.38,-000.53,0000.12,0000.29,-000.34,-000.17,0000.01,-000.01,0000.03,23.5,00.0,0601.3,31.0
2020-02-07T02:55:00Z,00000380,01000600,-000.49,0000.07,-000.40,0000.86,0000.21,0000.01,-000.12,-000.07,0000.05,23.5,00.0,0601.4,31.0
2020-02-07T02:56:00Z,00000380,01000600,0001.03,-000.23,0000.05,0001.04,0000.27,-000.16,-000.08,0000.03,-000.09,23.5,00.0,0601.4,31.0
2020-02-07T02:57:00Z,00000380,41000600,,,,,,,,,,23.5,00.0,0601.5,31.0
2020-02-07T02:58:00Z,00000380,61000600,,,,,,,,,,23.6,00.0,0600.5,31.0
2020-02-07T02:59:00Z,00000380,21000600,,,,,,,,,,23.7,00.0,0600.5,31.0
2020-02-07T03:00:00Z,00000380,21000600,,,,,,,,,,23.7,00.0,0600.6,31.0
2020-02-07T03:01:00Z,00000380,21000600,,,,,,,,,,23.7,00.0,0600.6,31.0
2020-02-07T03:02:00Z,00000380,21000600,,,,,,,,,,23.7,00.0,0600.6,31.0
2020-02-07T03:03:00Z,00000380,61000600,,,,,,,,,,23.7,00.0,0600.6,31.0
2020-02-07T03:04:00Z,00000380,41000600,0000.52,0000.34,-000.17,-000.19,-000.11,-000.12,-000.04,0000.20,-000.11,23.6,00.0,0601.5,31.0
2020-02-07T03:05:00Z,00000380,01000600,0001.23,0000.08,-000.24,0000.17,0000.06,-000.29,-000.01,-000.16,-000.14,23.6,00.0,0601.6,31.0
2020-02-07T03:06:00Z,00000380,01000600,0000.67,0000.06,0000.48,0000.43,-000.08,-000.40,-000.03,-000.10,0000.14,23.6,00.0,0601.6,31.0
2020-02-07T03:07:00Z,00000380,01000600,0000.48,0000.50,-000.59,0000.08,0000.04,-000.41,-000.06,0000.16,-000.10,23.5,00.0,0601.6,31.0
2020-02-07T03:08:00Z,00000380,01000600,-000.62,0000.40,0000.37,-000.03,0000.19,-000.17,-000.13,-000.17,-000.01,23.6,00.0,0601.6,31.0
2020-02-07T03:09:00Z,00000380,01000600,0000.36,0000.47,0000.02,0000.35,0000.05,-000.42,0000.17,0000.01,0000.17,23.5,00.0,0601.7,31.0
2020-02-07T03:10:00Z,00000380,01000600,-000.30,0000.73,-000.51,-000.55,0000.01,-000.17,0000.05,0000.04,-000.24,23.5,00.0,0601.7,31.0